Flag for U.S.A. Weather past 2 weeks in El Paso, Texas, U.S.A.

Now
44 °F

Light rain. Mostly cloudy.


Feels Like: 44 °F
Forecast: 45 / 57 °F
Wind: No wind

Location: El Paso International Airport

Current Time: Jan 30, 2015 at 11:31:21 PM

Latest Report: Jan 30, 2015 at 10:51 PM


Visibility: 10 mi

Pressure: 29.96 "Hg

Humidity: 85%

Dew point: 40 °F

Location of El PasoLocation

Historic Weather in El Paso — Graph

°F

El Paso temperature yesterday

Maximum temperature yesterday: 60 °F (at 10:51 AM)
Minimum temperature yesterday: 44 °F (at 1:51 AM)
Average temperature yesterday: 53 °F

Past Weeks' High & Low Weather Summary

 TemperatureHumidityPressure
High72 °F (Jan 28, 2:51 PM)96% (Jan 22, 8:51 AM)30.38 "Hg (Jan 22, 8:51 AM)
Low23 °F (Jan 23, 6:51 AM)19% (Jan 18, 3:51 PM)29.78 "Hg (Jan 21, 1:51 PM)
Average47 °F54%30.15 "Hg
* Reported Jan 15 9:51 PM — Jan 30 9:51 PM, El Paso, Weather by CustomWeather, © 2014

Note: Actual official high and low records may vary slightly from our data, if they occured in-between our weather recording intervals... More about our weather records

Advertising

El Paso weather history for previous 24 hours

 ConditionsComfort  
Time TempWeatherWind HumidityBarometerVisibility
9:51 PM
Jan 30
42 °FLight rain. Fog.5 mph92%29.98 "Hg6 mi
8:51 PM43 °FLight rain. Mostly cloudy.6 mph89%30.01 "Hg8 mi
7:51 PM44 °FLight rain. Mostly cloudy.8 mph89%30.01 "Hg8 mi
6:51 PM46 °FLight rain. Mostly cloudy.8 mph89%30.00 "Hg10 mi
5:51 PM46 °FLight rain. Mostly cloudy.6 mph83%29.99 "Hg7 mi
4:51 PM47 °FLight rain. Mostly cloudy.8 mph80%29.97 "Hg10 mi
3:51 PM48 °FLight rain. More clouds than sun.8 mph74%29.98 "Hg10 mi
2:51 PM46 °FLight rain. Mostly cloudy.13 mph77%30.00 "Hg10 mi
1:51 PM46 °FLight rain. Partly sunny.12 mph77%30.03 "Hg10 mi
12:51 PM46 °FLight rain. More clouds than sun.13 mph71%30.08 "Hg10 mi
11:51 AM46 °FMore clouds than sun.13 mph68%30.11 "Hg10 mi
10:51 AM45 °FMostly cloudy.14 mph71%30.14 "Hg10 mi
9:51 AM44 °FMostly cloudy.9 mph73%30.17 "Hg10 mi
8:51 AM42 °FPartly sunny.8 mph79%30.17 "Hg10 mi
7:51 AM41 °FMostly cloudy.9 mph82%30.18 "Hg10 mi
6:58 AM41 °FOvercast.10 mph86%30.26 "Hg10 mi
5:51 AM41 °FLight rain. Overcast.10 mph89%30.19 "Hg10 mi
4:51 AM42 °FLight rain. Overcast.9 mph82%30.19 "Hg10 mi
3:51 AM42 °FLight rain. Overcast.8 mph82%30.20 "Hg10 mi
2:51 AM43 °FLight rain. Overcast.8 mph82%30.21 "Hg10 mi
1:51 AM45 °FLight rain. Overcast.8 mph80%30.22 "Hg8 mi
12:51 AM45 °FLight rain. Overcast.8 mph82%30.24 "Hg8 mi
11:51 PM
Jan 29
48 °FLight rain. Overcast.12 mph66%30.24 "Hg10 mi
Weather by CustomWeather, © 2014

See weather overviewHow to use our weather pages